MAX VALIER SAT (42778 NORAD) Tracking and Keplerian Element Data

This shows tracking and keplerian element data for the satellite.

Feedback or suggestion? Click here.




ElementValue
Catalog42778
NameMAX VALIER SAT
Epoch Orbit23660
Epoch Day269.03903971
Epoch Year2021
RAAN314.3199
Inclination97.2449
Eccentricity0.0011992
Argument of Perigee172.9373
Mean Anonmoly187.2036
Mean Motion15.23970491
Decay Rate3.03E-05
L11 42778U 17036P 21269.03903971 .00003030 00000-0 12785-3 0 9999
L22 42778 97.2449 314.3199 0011992 172.9373 187.2036 15.23970491236604

Live tracking and technical data element details for MAX VALIER SAT (NORAD 42778). MAX VALIER SAT can be tracked NOW for your location showing map with azimuth and elevation plus other details from your city location.

Track the satellite on the map from your city or location and see movement details for azimuth, elevation, latitude, longitude, range, height, and movement on the map or in text.







IsCatalogInMostPopularTable: catalog: 42778, numindb: 580
Update: records affected: 1



GetName: 42778 MAX VALIER SAT

Hit Count: updated at: Mon, 27 Sep 2021 01:58:34 GMT